Weather History for El Centro, CA

Change the Weather History Date:

Monday, November 7, 2011

  Actual Average Record
Temperature  
Mean Temperature 58 °F -  
Max Temperature 70 °F 77 °F 91 °F (2006)
Min Temperature 46 °F 52 °F 45 °F (1996)
Degree Days  
Heating Degree Days 7    
Growing Degree Days 8 (Base 50)    
Moisture  
Dew Point 31 °F    
Average Humidity 33    
Maximum Humidity 49    
Minimum Humidity 22    
Precipitation  
Precipitation 0.00 in - - ()
Sea Level Pressure  
Sea Level Pressure 30.11 in    
Wind  
Wind Speed 4 mph (WSW)    
Max Wind Speed 10 mph    
Max Gust Speed -    
Visibility 10 miles    
Events      
Averages and records for this station are not official NWS values.
T = Trace of Precipitation, MM = Missing Value Source: NWS Daily Summary

Daily Weather History Graph

Daily Weather History Graph

Search for Another Location

Airport:

Trip Planner

Search our weather history database for the weather conditions in past years. The results will help you decide how hot, cold, wet, or windy it might be!

Date:

Astronomy

Nov. 07, 2011 Rise Set
Actual Time 6:05 AM PST 4:46 PM PST
Civil Twilight 5:39 AM PST 5:12 PM PST
Nautical Twilight 5:10 AM PST 5:41 PM PST
Astronomical Twilight 4:41 AM PST 6:10 PM PST
Moon 2:54 PM PST (11/7) 3:18 AM PST (11/7)
Length of Visible Light 11h 32m
Length of Day
10h 41m
Waxing Gibbous, 92% of the Moon is Illuminated
Nov 7
Waxing Gibbous
Nov 10
Full
Nov 18
Last Quarter
Nov 24
New
Dec 2
First Quarter

Hourly Weather History & Observations

Time (PST) Temp. Dew Point Humidity Pressure Visibility Wind Dir Wind Speed Gust Speed Precip Events Conditions
12:56 AM - - N/A% 30.03 in - North - - N/A   Unknown
1:56 AM - - N/A% 30.03 in - North - - N/A   Unknown
2:56 AM - - N/A% 30.02 in - North - - N/A   Unknown
3:56 AM - - N/A% 30.04 in - North - - N/A   Unknown
4:56 AM - - N/A% 30.04 in - North - - N/A   Unknown
5:56 AM 46.4 °F 21.2 °F 37% 30.01 in 10.0 mi Calm Calm - N/A   Clear
6:56 AM 50.7 °F 31.1 °F 47% 30.09 in 10.0 mi WSW 4.6 mph - N/A   Clear
7:56 AM 56.5 °F 37.4 °F 49% 30.11 in 10.0 mi West 6.9 mph - N/A   Clear
8:56 AM 60.1 °F 35.6 °F 40% 30.13 in 10.0 mi West 8.1 mph - N/A   Clear
9:56 AM 63.1 °F 34.3 °F 34% 30.14 in 10.0 mi West 4.6 mph - N/A   Clear
10:56 AM 65.3 °F 31.1 °F 28% 30.13 in 10.0 mi West 4.6 mph - N/A   Clear
11:56 AM 67.6 °F 30.7 °F 25% 30.12 in 10.0 mi West 10.4 mph - N/A   Clear
12:56 PM 68.0 °F 30.9 °F 25% 30.10 in 10.0 mi West 6.9 mph - N/A   Clear
1:56 PM 68.0 °F 30.0 °F 24% 30.09 in 10.0 mi West 4.6 mph - N/A   Clear
2:56 PM 70.7 °F 30.2 °F 22% 30.10 in 10.0 mi West 4.6 mph - N/A   Partly Cloudy
3:56 PM 70.0 °F 28.8 °F 22% 30.10 in 10.0 mi NW 6.9 mph - N/A   Partly Cloudy
4:56 PM 68.4 °F 31.8 °F 26% 30.11 in 10.0 mi WNW 3.5 mph - N/A   Partly Cloudy
5:56 PM 67.8 °F 30.7 °F 25% 30.13 in 10.0 mi East 4.6 mph - N/A   Partly Cloudy
6:56 PM 61.9 °F 28.0 °F 28% 30.16 in 10.0 mi SSE 6.9 mph - N/A   Partly Cloudy
7:56 PM 59.5 °F 32.5 °F 36% 30.18 in 10.0 mi South 3.5 mph - N/A   Clear
8:56 PM 59.7 °F 32.9 °F 36% 30.20 in 10.0 mi South 3.5 mph - N/A   Clear
9:56 PM 57.2 °F 29.8 °F 35% 30.20 in 10.0 mi South 3.5 mph - N/A   Clear
10:55 PM - - N/A% - - North - - N/A   Unknown
10:56 PM 51.4 °F 30.6 °F 45% 30.21 in 10.0 mi Calm Calm - N/A   Clear
11:56 PM 51.4 °F 30.6 °F 45% 30.22 in 10.0 mi Calm Calm - N/A   Clear